Tiempo cada hora Barrancas

Hoy, 15 Mayo, Sábado

Tiempo Temperatura Precipitaciones Viento Presión Humedad
00:00 +25°C° 0 mm 1 mps 745 mmHg 91%
01:00 +25°C° 0 mm 1 mps 745 mmHg 93%
02:00 +25°C° 0 mm 1 mps 745 mmHg 92%
03:00 +25°C° 0 mm 1 mps 745 mmHg 92%
04:00 +25°C° 0 mm 1 mps 745 mmHg 91%
05:00 +26°C° 0 mm 1 mps 745 mmHg 88%
06:00 +27°C° 0 mm 1 mps 745 mmHg 86%
07:00 +27°C° 0 mm 1 mps 746 mmHg 83%
08:00 +29°C° 0 mm 2 mps 745 mmHg 75%
09:00 +31°C° 0 mm 2 mps 745 mmHg 67%
10:00 +32°C° 0 mm 2 mps 745 mmHg 60%
11:00 +35°C° 0 mm 2 mps 745 mmHg 54%
12:00 +36°C° 0 mm 3 mps 744 mmHg 49%
13:00 +37°C° 0 mm 3 mps 743 mmHg 44%
14:00 +37°C° 0 mm 3 mps 743 mmHg 45%
15:00 +36°C° 0 mm 3 mps 742 mmHg 47%
16:00 +36°C° 0 mm 3 mps 742 mmHg 49%
17:00 +34°C° 0 mm 3 mps 743 mmHg 59%
18:00 +31°C° 0 mm 2 mps 743 mmHg 69%
19:00 +29°C° 0 mm 1 mps 744 mmHg 80%
20:00 +28°C° 0 mm 1 mps 744 mmHg 83%
21:00 +27°C° 0 mm 1 mps 745 mmHg 87%
22:00 +26°C° 0 mm 1 mps 745 mmHg 90%
23:00 +26°C° 0 mm 1 mps 745 mmHg 91%

Mañana, 16 Mayo, Domingo

Tiempo Temperatura Precipitaciones Viento Presión Humedad
00:00 +26°C° 0 mm 1 mps 745 mmHg 92%
01:00 +25°C° 0 mm 1 mps 745 mmHg 93%
02:00 +25°C° 0 mm 1 mps 745 mmHg 93%
03:00 +25°C° 0 mm 1 mps 745 mmHg 94%
04:00 +25°C° 0 mm 1 mps 745 mmHg 94%
05:00 +26°C° 0 mm 1 mps 745 mmHg 90%
06:00 +26°C° 0 mm 1 mps 746 mmHg 87%
07:00 +27°C° 0 mm 1 mps 746 mmHg 84%
08:00 +29°C° 0 mm 2 mps 746 mmHg 76%
09:00 +31°C° 0 mm 2 mps 746 mmHg 67%
10:00 +34°C° 0 mm 2 mps 746 mmHg 59%
11:00 +35°C° 0 mm 2 mps 745 mmHg 53%
12:00 +37°C° 0 mm 3 mps 744 mmHg 47%
13:00 +38°C° 0 mm 3 mps 743 mmHg 41%
14:00 +38°C° 0 mm 3 mps 743 mmHg 43%
15:00 +37°C° 0 mm 3 mps 743 mmHg 45%
16:00 +36°C° 0 mm 3 mps 742 mmHg 47%
17:00 +34°C° 0.1 mm 3 mps 743 mmHg 58%
18:00 +31°C° 0.1 mm 2 mps 744 mmHg 69%
19:00 +29°C° 0.1 mm 1 mps 744 mmHg 81%
20:00 +28°C° 0.1 mm 1 mps 745 mmHg 84%
21:00 +27°C° 0.1 mm 1 mps 745 mmHg 87%
22:00 +27°C° 0.1 mm 1 mps 746 mmHg 91%
23:00 +26°C° 0 mm 1 mps 745 mmHg 92%

Pasado mañana, 17 Mayo, Lunes

Tiempo Temperatura Precipitaciones Viento Presión Humedad
00:00 +26°C° 0 mm 1 mps 745 mmHg 93%
01:00 +26°C° 0 mm 1 mps 745 mmHg 95%
02:00 +26°C° 0 mm 1 mps 745 mmHg 94%
03:00 +26°C° 0 mm 1 mps 744 mmHg 94%
04:00 +26°C° 0 mm 1 mps 744 mmHg 93%
05:00 +26°C° 0 mm 1 mps 745 mmHg 91%
06:00 +27°C° 0 mm 1 mps 745 mmHg 88%
07:00 +28°C° 0 mm 1 mps 745 mmHg 86%
08:00 +29°C° 0.1 mm 2 mps 745 mmHg 77%
09:00 +31°C° 0.1 mm 2 mps 745 mmHg 69%
10:00 +34°C° 0.1 mm 2 mps 745 mmHg 60%
11:00 +35°C° 0 mm 2 mps 745 mmHg 56%
12:00 +36°C° 0 mm 2 mps 744 mmHg 52%
13:00 +37°C° 0 mm 2 mps 743 mmHg 48%
14:00 +35°C° 0.3 mm 2 mps 743 mmHg 55%
15:00 +34°C° 0.3 mm 2 mps 743 mmHg 61%
16:00 +32°C° 0.3 mm 1 mps 743 mmHg 68%
17:00 +30°C° 0.6 mm 1 mps 743 mmHg 75%
18:00 +28°C° 0.6 mm 1 mps 744 mmHg 82%
19:00 +27°C° 0.6 mm 1 mps 744 mmHg 90%
20:00 +27°C° 0.6 mm 1 mps 745 mmHg 91%
21:00 +26°C° 0.6 mm 1 mps 745 mmHg 92%
22:00 +24°C° 0.6 mm 0 mps 746 mmHg 94%
23:00 +24°C° 0.3 mm 0 mps 746 mmHg 94%

18 Mayo, Martes

Tiempo Temperatura Precipitaciones Viento Presión Humedad
00:00 +24°C° 0.3 mm 0 mps 745 mmHg 95%
01:00 +23°C° 0.3 mm 0 mps 745 mmHg 95%
02:00 +23°C° 0.3 mm 0 mps 745 mmHg 95%
03:00 +23°C° 0.3 mm 0 mps 745 mmHg 96%
04:00 +23°C° 0.3 mm 0 mps 745 mmHg 96%
05:00 +24°C° 0.4 mm 0 mps 745 mmHg 94%
06:00 +24°C° 0.4 mm 0 mps 745 mmHg 92%
07:00 +25°C° 0.4 mm 0 mps 746 mmHg 90%
08:00 +27°C° 0.1 mm 0 mps 746 mmHg 82%
09:00 +30°C° 0.1 mm 1 mps 746 mmHg 74%
10:00 +32°C° 0.1 mm 1 mps 746 mmHg 66%
11:00 +33°C° 0.4 mm 1 mps 745 mmHg 63%
12:00 +34°C° 0.4 mm 1 mps 745 mmHg 60%
13:00 +34°C° 0.4 mm 1 mps 744 mmHg 58%
14:00 +33°C° 1.3 mm 1 mps 744 mmHg 66%
15:00 +31°C° 1.3 mm 1 mps 743 mmHg 74%
16:00 +30°C° 1.3 mm 1 mps 743 mmHg 82%
17:00 +29°C° 1.4 mm 1 mps 744 mmHg 85%
18:00 +26°C° 1.4 mm 0 mps 744 mmHg 87%
19:00 +25°C° 1.4 mm 0 mps 745 mmHg 90%
20:00 +25°C° 0.6 mm 0 mps 745 mmHg 91%
21:00 +24°C° 0.6 mm 0 mps 746 mmHg 93%
22:00 +24°C° 0.6 mm 0 mps 746 mmHg 94%
23:00 +24°C° 0.2 mm 0 mps 746 mmHg 94%

19 Mayo, Miércoles

Tiempo Temperatura Precipitaciones Viento Presión Humedad
00:00 +24°C° 0.2 mm 0 mps 745 mmHg 94%
01:00 +24°C° 0.2 mm 0 mps 745 mmHg 95%
02:00 +23°C° 0.4 mm 0 mps 745 mmHg 95%
03:00 +25°C° 0.4 mm 1 mps 745 mmHg 95%
04:00 +25°C° 0.4 mm 1 mps 744 mmHg 95%
05:00 +26°C° 0 mm 1 mps 745 mmHg 94%
06:00 +26°C° 0 mm 1 mps 745 mmHg 92%
07:00 +25°C° 0 mm 0 mps 746 mmHg 90%
08:00 +29°C° 0.1 mm 1 mps 746 mmHg 81%
09:00 +31°C° 0.1 mm 1 mps 746 mmHg 72%
10:00 +33°C° 0.1 mm 1 mps 746 mmHg 63%
11:00 +33°C° 1.4 mm 1 mps 745 mmHg 64%
12:00 +33°C° 1.4 mm 1 mps 745 mmHg 65%
13:00 +33°C° 1.4 mm 1 mps 744 mmHg 67%
14:00 +31°C° 2.5 mm 1 mps 744 mmHg 75%
15:00 +29°C° 2.5 mm 1 mps 744 mmHg 83%
16:00 +28°C° 2.5 mm 1 mps 743 mmHg 91%
17:00 +27°C° 1.7 mm 1 mps 744 mmHg 93%
18:00 +27°C° 1.7 mm 1 mps 744 mmHg 95%
19:00 +26°C° 1.7 mm 1 mps 745 mmHg 96%
20:00 +26°C° 0.3 mm 1 mps 745 mmHg 96%
21:00 +26°C° 0.3 mm 1 mps 745 mmHg 95%
22:00 +26°C° 0.3 mm 1 mps 746 mmHg 94%
23:00 +26°C° 0.1 mm 1 mps 745 mmHg 94%

20 Mayo, Jueves

Tiempo Temperatura Precipitaciones Viento Presión Humedad
00:00 +26°C° 0.1 mm 1 mps 745 mmHg 94%
01:00 +26°C° 0.1 mm 1 mps 744 mmHg 93%
02:00 +26°C° 0.1 mm 1 mps 744 mmHg 93%
03:00 +26°C° 0.1 mm 1 mps 744 mmHg 93%
04:00 +26°C° 0.1 mm 1 mps 744 mmHg 93%
05:00 +26°C° 0.1 mm 1 mps 744 mmHg 93%
06:00 +26°C° 0.1 mm 1 mps 744 mmHg 92%
07:00 +26°C° 0.1 mm 1 mps 744 mmHg 92%
08:00 +28°C° 0 mm 1 mps 745 mmHg 86%
09:00 +29°C° 0 mm 1 mps 745 mmHg 81%
10:00 +30°C° 0 mm 1 mps 745 mmHg 75%
11:00 +31°C° 0 mm 1 mps 744 mmHg 70%
12:00 +32°C° 0 mm 1 mps 744 mmHg 65%
13:00 +33°C° 0 mm 1 mps 743 mmHg 60%
14:00 +32°C° 0 mm 1 mps 743 mmHg 62%
15:00 +32°C° 0 mm 1 mps 743 mmHg 64%
16:00 +32°C° 0 mm 1 mps 742 mmHg 66%
17:00 +30°C° 0.1 mm 1 mps 743 mmHg 73%
18:00 +29°C° 0.1 mm 1 mps 743 mmHg 80%
19:00 +28°C° 0.1 mm 1 mps 743 mmHg 87%
20:00 +27°C° 0 mm 1 mps 744 mmHg 89%
21:00 +27°C° 0 mm 1 mps 744 mmHg 90%
22:00 +26°C° 0 mm 1 mps 745 mmHg 92%
23:00 +26°C° 0 mm 1 mps 744 mmHg 92%
Mostrar más

Necesitamos Su Consentimiento

Meteoprog y nuestros Proveedores de Servicios pueden almacenar y acceder a sus datos personales como cookies, identificadores de dispositivo u otras tecnologías similares de su dispositivo y procesar dichos datos para personalizar contenido y anuncios, además de ofrecer funciones de redes sociales y analizar el tráfico.

  • Almacenar y/o acceder a información en su dispositivo

    Se puede almacenar o acceder a cookies, identificadores de dispositivo u otra información de su dispositivo para los fines anteriormente indicados.

  • Anuncios y contenido personalizados, medición de anuncios y contenido, percepciones del público, y desarrollo de productos

    Los anuncios y el contenido pueden personalizarse en base a su perfil. Se pueden añadir más datos para personalizar mejor los anuncios y contenidos. Se puede medir el rendimiento de los anuncios y contenidos. Se puede obtener la percepción sobre el público que ha visto los anuncios y contenidos. Dichos datos pueden usarse para desarrollar o mejorar la experiencia del usuario, sistemas y software.

Al hacer clic en ‘Estoy De Acuerdo’ usted permitirá el uso de las cookies, identificadores de dispositivo, balizas web u otras tecnologías similares indicadas. Su configuración puede cambiarse desde el navegador de su dispositivo.

Para ciertos fines, los intereses legítimos pueden ser considerados por encima del consentimiento. Puede leer más sobre ello en nuestra Política de Privacidad y Cookies.